QPF
0.00 0.00 0.00 0.00 0.00 0.00 0.00 0.00 0.00 0.00 0.00 0.00 0.00 0.00 0.00 0.01 0.00 0.01 0.00 0.01 0.01 0.01 0.01 0.01 0.01 0.01 0.00 0.00 0.00 0.00 0.00 0.00
0.00 0.00 0.00 0.00 0.00 0.00 0.00 0.00 0.00 0.00 0.00 0.00 0.00 0.00 0.01 0.02 0.01 0.01 0.01 0.01 0.01 0.01 0.00 0.00 0.00 0.00 0.00 0.00 0.00 0.00 0.00 0.00
0.00 0.00 0.00 0.00 0.00 0.00 0.00 0.00 0.00 0.00 0.00 0.00 0.00 0.00 0.00 0.00 0.00 0.00 0.00 0.00 0.00 0.00 0.00 0.00 0.00 0.00 0.00 0.00 0.00 0.00 0.00 0.00
0.00 0.00 0.00 0.00 0.00 0.00 0.00 0.00 0.00 0.00 0.00 0.00 0.00 0.00 0.00 0.00 0.00 0.00 0.00 0.00 0.00 0.00 0.00 0.00 0.00 0.00 0.00 0.00 0.00 0.00 0.00 0.00
0.00 0.00 0.00 0.00 0.00 0.00 0.00 0.00 0.00 0.00 0.00 0.00 0.00 0.00 0.00 0.00 0.00 0.00 0.00 0.00 0.00 0.00 0.00 0.00 0.00 0.00 0.00 0.00 0.00 0.00 0.00 0.00
0.00 0.00 0.00 0.00 0.00 0.00 0.00 0.00 0.00 0.00 0.00 0.00 0.00 0.00 0.00 0.00 0.00 0.00 0.00 0.00 0.00 0.00 0.00 0.00 0.00 0.00 0.00 0.00 0.00 0.00 0.00 0.00
0.00 0.00 0.00 0.00 0.00 0.00 0.00 0.00 0.00 0.00 0.00 0.00 0.00 0.00 0.00 0.00 0.00 0.00 0.00 0.00 0.00 0.00 0.00 0.00 0.00 0.00 0.00 0.00 0.00 0.00 0.00 0.00
0.00 0.00 0.00 0.00 0.00 0.00 0.00 0.00 0.00 0.00 0.00 0.00 0.00 0.00 0.00 0.00 0.00 0.00 0.00 0.00 0.00 0.00 0.00 0.00 0.00 0.00 0.00 0.00 0.00 0.00 0.00 0.00
0.00 0.00 0.00 0.00 0.00 0.00 0.00 0.00 0.00 0.00 0.00 0.00 0.00 0.00 0.00 0.00 0.00 0.00 0.00 0.00 0.00 0.00 0.00 0.00 0.00 0.00 0.00 0.00 0.00 0.00 0.00 0.01
0.00 0.00 0.00 0.00 0.00 0.00 0.00 0.00 0.00 0.00 0.00 0.00 0.00 0.00 0.00 0.00 0.00 0.00 0.00 0.00 0.00 0.00 0.00 0.00 0.00 0.00 0.00 0.00 0.00 0.00 0.01 0.01
0.00 0.00 0.00 0.00 0.00 0.00 0.00 0.00 0.00 0.00 0.00 0.00 0.00 0.00 0.00 0.00 0.00 0.00 0.00 0.00 0.00 0.00 0.00 0.00 0.00 0.00 0.00 0.00 0.01 0.01 0.01 0.00
0.00 0.00 0.00 0.00 0.00 0.00 0.00 0.00 0.00 0.00 0.00 0.00 0.00 0.00 0.00 0.00 0.00 0.00 0.00 0.00 0.00 0.00 0.00 0.00 0.00 0.00 0.00 0.01 0.01 0.01 0.01 0.01
0.00 0.00 0.00 0.00 0.00 0.00 0.00 0.00 0.00 0.00 0.00 0.00 0.00 0.00 0.00 0.00 0.00 0.00 0.00 0.00 0.00 0.00 0.00 0.00 0.00 0.00 0.00 0.00 0.00 0.00 0.01 0.01
0.00 0.00 0.00 0.00 0.00 0.00 0.00 0.00 0.00 0.00 0.00 0.00 0.00 0.00 0.00 0.00 0.00 0.00 0.00 0.00 0.00 0.00 0.00 0.00 0.00 0.00 0.00 0.00 0.00 0.00 0.00 0.01
0.00 0.00 0.00 0.00 0.00 0.00 0.00 0.00 0.00 0.00 0.00 0.00 0.00 0.00 0.00 0.00 0.00 0.00 0.00 0.00 0.00 0.00 0.00 0.00 0.00 0.00 0.00 0.00 0.00 0.00 0.00 0.00
0.00 0.00 0.00 0.00 0.00 0.00 0.00 0.00 0.00 0.00 0.00 0.00 0.00 0.00 0.00 0.00 0.00 0.00 0.00 0.00 0.00 0.00 0.00 0.00 0.00 0.00 0.00 0.00 0.00 0.00 0.00 0.00
0.00 0.00 0.00 0.00 0.00 0.00 0.00 0.00 0.00 0.00 0.00 0.00 0.00 0.00 0.00 0.00 0.00 0.00 0.00 0.00 0.00 0.00 0.00 0.00 0.00 0.00 0.00 0.00 0.00 0.00 0.00 0.00
0.00 0.00 0.00 0.00 0.00 0.00 0.00 0.00 0.00 0.00 0.00 0.00 0.00 0.00 0.00 0.00 0.00 0.00 0.00 0.00 0.00 0.00 0.00 0.00 0.00 0.00 0.00 0.00 0.00 0.00 0.00 0.00
0.00 0.00 0.00 0.00 0.00 0.00 0.00 0.00 0.00 0.00 0.00 0.00 0.00 0.00 0.00 0.00 0.00 0.00 0.00 0.00 0.00 0.00 0.00 0.00 0.00 0.00 0.00 0.00 0.00 0.00 0.00 0.00
MSLP
1005.79 1006.22 1006.27 1006.18 1006.44 1006.75 1007.38 1009.22 1009.95 1010.62 1011.30 1011.87 1012.63 1013.03 1013.31 1013.64 1013.92 1014.10 1014.23 1014.35 1014.55 1015.03 1014.96 1015.00 1015.32 1015.57 1015.62 1015.89 1016.09 1016.07 1016.01 1015.79
1005.91 1006.28 1006.44 1006.44 1006.66 1007.05 1008.06 1009.19 1009.97 1010.46 1010.94 1011.55 1012.27 1012.71 1013.06 1013.35 1013.68 1013.76 1014.31 1014.78 1014.67 1014.56 1014.46 1014.65 1014.68 1014.98 1015.21 1015.33 1015.34 1015.35 1015.28 1015.52
1005.46 1006.02 1006.29 1006.42 1006.80 1007.41 1008.37 1009.07 1009.75 1010.50 1010.79 1011.46 1012.08 1012.57 1012.83 1012.92 1013.44 1014.01 1014.35 1014.62 1014.80 1014.72 1014.87 1014.90 1015.04 1015.07 1015.18 1015.24 1015.15 1014.81 1014.42 1014.46
1004.53 1005.56 1006.09 1006.38 1006.87 1007.65 1008.35 1008.97 1009.58 1010.47 1011.25 1011.70 1012.30 1012.79 1013.45 1013.48 1013.68 1013.98 1014.50 1014.72 1015.08 1015.25 1015.19 1015.24 1015.38 1015.46 1015.24 1015.21 1015.09 1014.86 1014.28 1014.02
1003.55 1004.79 1005.77 1006.24 1006.85 1007.66 1008.51 1009.37 1009.86 1010.37 1011.01 1011.71 1011.93 1012.41 1012.68 1013.32 1013.52 1014.02 1014.36 1014.86 1014.96 1015.17 1015.41 1015.40 1015.40 1015.37 1015.24 1015.05 1014.76 1014.61 1014.31 1013.40
1003.00 1004.23 1005.41 1006.41 1007.36 1007.90 1008.55 1009.18 1009.90 1010.36 1010.92 1011.40 1011.74 1012.21 1012.83 1013.33 1013.67 1014.15 1014.44 1014.69 1014.90 1015.14 1015.37 1015.40 1015.33 1015.17 1014.93 1014.88 1014.71 1014.45 1014.05 1013.36
1002.76 1004.19 1005.43 1006.52 1007.28 1008.23 1008.87 1009.14 1009.87 1010.43 1011.19 1011.48 1011.83 1012.43 1012.79 1013.04 1013.58 1014.08 1014.39 1014.66 1014.89 1014.98 1015.11 1015.17 1015.08 1014.98 1014.77 1014.47 1014.26 1014.05 1013.68 1013.09
1002.35 1003.69 1005.00 1006.20 1007.14 1008.23 1008.98 1009.43 1010.10 1010.52 1011.17 1011.87 1012.36 1012.76 1013.22 1013.59 1013.89 1014.20 1014.54 1014.57 1014.67 1014.71 1014.88 1014.98 1014.84 1014.71 1014.58 1014.36 1013.97 1013.57 1013.20 1012.61
1002.02 1003.31 1004.74 1006.07 1007.03 1007.97 1008.58 1009.20 1010.08 1010.83 1011.28 1012.20 1012.78 1013.18 1013.26 1013.68 1014.02 1014.29 1014.50 1014.64 1014.70 1014.81 1014.93 1014.81 1014.65 1014.47 1014.23 1013.96 1013.62 1013.13 1012.63 1012.10
1001.70 1003.08 1004.47 1005.79 1006.82 1007.78 1008.52 1009.03 1009.87 1010.73 1011.43 1012.17 1012.79 1013.20 1013.51 1013.69 1014.14 1014.44 1014.51 1014.70 1014.71 1014.78 1014.83 1014.64 1014.38 1014.16 1013.89 1013.58 1013.12 1012.64 1012.27 1011.73
1001.75 1002.89 1004.23 1005.45 1006.53 1007.76 1008.68 1009.12 1009.89 1010.63 1011.42 1012.15 1012.68 1013.19 1013.67 1014.01 1014.24 1014.34 1014.57 1014.70 1014.75 1014.73 1014.64 1014.51 1014.45 1014.40 1014.13 1013.77 1013.12 1012.45 1011.76 1011.19
1001.37 1002.79 1004.07 1005.25 1006.41 1007.84 1008.52 1008.94 1009.82 1010.78 1011.45 1012.17 1012.78 1013.25 1013.69 1014.04 1014.21 1014.38 1014.42 1014.59 1014.62 1014.55 1014.72 1014.85 1014.57 1014.20 1013.85 1013.27 1012.75 1012.21 1011.60 1010.74
1001.30 1002.62 1003.67 1004.97 1006.21 1007.42 1008.33 1009.32 1009.86 1010.73 1011.42 1012.21 1012.79 1013.31 1013.75 1014.02 1014.13 1014.25 1014.45 1014.53 1014.47 1014.48 1014.52 1014.34 1014.00 1013.74 1013.40 1013.15 1012.73 1012.15 1011.50 1010.90
1001.37 1002.47 1003.49 1004.84 1006.01 1007.07 1008.09 1009.11 1009.98 1010.65 1011.48 1012.24 1012.77 1013.27 1013.66 1013.87 1014.09 1014.37 1014.55 1014.66 1014.62 1014.64 1014.53 1014.28 1014.03 1013.55 1013.41 1013.17 1012.52 1011.81 1011.23 1010.56
1000.90 1002.33 1003.62 1004.89 1005.95 1006.97 1008.10 1009.13 1009.95 1010.71 1011.54 1012.20 1012.82 1013.24 1013.58 1013.95 1014.36 1014.58 1014.66 1014.69 1014.74 1014.62 1014.33 1014.12 1013.95 1013.55 1012.97 1012.88 1012.51 1011.76 1011.13 1010.37
1000.44 1001.82 1003.24 1004.72 1005.79 1007.17 1008.01 1009.24 1010.21 1010.72 1011.55 1012.32 1012.89 1013.29 1013.71 1014.21 1014.50 1014.62 1014.56 1014.53 1014.55 1014.43 1014.36 1014.09 1013.91 1013.54 1012.91 1012.68 1012.22 1011.46 1010.57 1009.57
1000.22 1001.67 1002.90 1004.13 1005.47 1006.64 1007.78 1008.97 1010.03 1010.87 1011.57 1012.41 1012.95 1013.41 1013.97 1014.25 1014.44 1014.47 1014.53 1014.44 1014.36 1014.49 1014.34 1014.21 1013.50 1013.10 1012.73 1012.37 1011.68 1010.85 1009.68 1008.73
999.50 1000.94 1002.14 1003.49 1005.01 1006.18 1007.36 1008.63 1009.68 1010.62 1011.51 1012.61 1013.17 1013.74 1014.18 1014.52 1014.57 1014.50 1014.52 1014.41 1014.40 1014.51 1014.08 1013.74 1013.14 1012.72 1012.20 1011.82 1010.91 1010.30 1008.95 1008.11
999.45 1000.94 1002.31 1003.49 1004.56 1006.10 1007.30 1008.58 1009.21 1010.48 1011.39 1012.16 1013.11 1013.50 1014.04 1014.31 1014.58 1014.59 1014.57 1014.56 1014.41 1014.34 1013.83 1013.34 1012.82 1012.40 1012.07 1011.29 1010.27 1009.59 1008.30 1007.63
Thickness
5757 5756 5758 5760 5757 5754 5748 5730 5722 5717 5712 5708 5701 5698 5695 5692 5690 5688 5687 5687 5684 5680 5679 5678 5674 5671 5670 5666 5662 5660 5658 5657
5750 5749 5750 5751 5750 5745 5736 5725 5716 5711 5707 5703 5696 5692 5690 5689 5684 5682 5677 5674 5675 5674 5674 5671 5669 5667 5664 5661 5658 5654 5651 5646
5743 5742 5742 5743 5740 5736 5726 5719 5712 5704 5701 5696 5691 5686 5684 5684 5677 5671 5668 5666 5664 5663 5661 5659 5657 5656 5653 5650 5646 5644 5644 5641
5742 5736 5735 5735 5732 5725 5719 5713 5706 5695 5688 5684 5679 5675 5669 5669 5667 5664 5660 5657 5652 5649 5648 5646 5644 5641 5639 5636 5632 5629 5629 5628
5744 5734 5728 5727 5724 5719 5710 5700 5694 5688 5681 5675 5674 5669 5665 5662 5660 5656 5652 5646 5644 5640 5635 5633 5631 5628 5627 5624 5623 5618 5614 5614
5736 5729 5722 5715 5709 5706 5701 5693 5685 5679 5674 5669 5666 5660 5656 5653 5649 5644 5641 5638 5634 5629 5624 5621 5620 5618 5616 5612 5607 5602 5599 5598
5729 5721 5713 5703 5698 5690 5686 5684 5674 5668 5660 5658 5655 5649 5645 5643 5638 5633 5631 5628 5623 5618 5613 5611 5608 5605 5602 5600 5595 5589 5584 5581
5722 5713 5703 5694 5686 5676 5671 5668 5660 5655 5648 5642 5639 5635 5630 5628 5626 5623 5618 5616 5612 5608 5603 5599 5596 5592 5588 5583 5579 5575 5570 5565
5714 5705 5695 5685 5675 5666 5661 5656 5648 5640 5635 5627 5623 5620 5620 5617 5614 5610 5606 5602 5599 5595 5590 5587 5584 5579 5573 5569 5564 5559 5554 5550
5705 5696 5687 5677 5666 5656 5649 5645 5637 5629 5623 5616 5611 5608 5607 5605 5599 5596 5593 5589 5587 5583 5579 5576 5571 5564 5560 5554 5550 5545 5537 5531
5693 5687 5678 5671 5659 5647 5638 5634 5625 5618 5611 5605 5600 5597 5593 5589 5586 5584 5580 5578 5574 5570 5566 5561 5554 5547 5541 5536 5533 5529 5523 5514
5684 5675 5668 5659 5648 5635 5628 5624 5616 5605 5599 5593 5588 5584 5580 5577 5575 5572 5570 5566 5562 5558 5550 5541 5536 5533 5527 5522 5517 5510 5503 5497
5673 5664 5658 5647 5636 5627 5619 5609 5604 5595 5588 5581 5576 5572 5567 5565 5563 5560 5557 5553 5547 5541 5535 5531 5527 5520 5513 5505 5497 5490 5482 5472
5660 5653 5645 5635 5626 5617 5609 5599 5591 5584 5577 5569 5565 5561 5556 5554 5552 5547 5541 5536 5531 5525 5521 5517 5510 5504 5496 5486 5480 5473 5465 5455
5649 5641 5631 5621 5613 5605 5593 5586 5578 5571 5564 5559 5553 5548 5545 5541 5536 5531 5526 5522 5517 5512 5508 5501 5494 5489 5483 5471 5462 5455 5445 5437
5638 5629 5618 5607 5599 5587 5581 5570 5561 5558 5551 5545 5539 5535 5532 5526 5521 5517 5514 5510 5504 5499 5492 5486 5479 5471 5466 5455 5447 5440 5429 5428
5625 5614 5604 5594 5586 5576 5567 5559 5550 5543 5539 5530 5525 5521 5517 5513 5509 5506 5501 5496 5491 5484 5477 5470 5467 5459 5450 5441 5435 5425 5422 5424
5613 5603 5596 5586 5576 5567 5557 5548 5539 5534 5525 5509 5507 5506 5500 5496 5495 5492 5486 5483 5477 5468 5464 5459 5455 5448 5441 5430 5423 5414 5421 5421
5598 5591 5580 5572 5567 5554 5545 5535 5531 5520 5513 5509 5498 5495 5490 5485 5480 5475 5472 5466 5462 5454 5452 5449 5444 5437 5427 5421 5417 5415 5418 5416